Santa Ynez, CA

3:33 AM PDT on March 30, 2017 (GMT -0700)
Santa Ynez

Weather History for KIZA - August, 2013

Change the Weather History Date:

Sunday, August 25, 2013

  Actual Average (KSBA) Record (KSBA)
Temperature  
Mean Temperature 70 °F -  
Max Temperature 86 °F 76 °F 85 °F (1985)
Min Temperature 53 °F 58 °F 48 °F (1944)
Cooling Degree Days 4    
Growing Degree Days 20 (Base 50)    
Moisture  
Dew Point 54 °F    
Average Humidity 72    
Maximum Humidity 100    
Minimum Humidity 31    
Precipitation  
Precipitation 0.00 in - - ()
Sea Level Pressure  
Sea Level Pressure 29.92 in    
Wind  
Wind Speed 4 mph (West)    
Max Wind Speed 18 mph    
Max Gust Speed 21 mph    
Visibility 7 miles    
Events Fog    
Averages and records for this station are not official NWS values.
T = Trace of Precipitation, MM = Missing Value Source: NWS Daily Summary

Daily Weather History Graph

Daily Weather History Graph

Search for Another Location

Airport or City:

Trip Planner

Search our weather history database for the weather conditions in past years. The results will help you decide how hot, cold, wet, or windy it might be!

Date:

Astronomy

Aug. 25, 2013 Rise Set
Actual Time 6:28 AM PDT 7:35 PM PDT
Civil Twilight 6:02 AM PDT 8:01 PM PDT
Nautical Twilight 5:31 AM PDT 8:32 PM PDT
Astronomical Twilight 4:59 AM PDT 9:04 PM PDT
Moon 10:25 PM PDT (8/25) 11:20 AM PDT (8/25)
Length of Visible Light 13h 58m
Length of Day
13h 06m
Waning Gibbous, 75% of the Moon is Illuminated
Aug 25
Waning Gibbous
Aug 28
Last Quarter
Sep 5
New
Sep 12
First Quarter
Sep 19
Full

Hourly Weather History & Observations

Time (PDT) Temp. Heat Index Dew Point Humidity Pressure Visibility Wind Dir Wind Speed Gust Speed Precip Events Conditions
12:15 AM 55.4 °F - 53.6 °F 94% 29.90 in 10.0 mi Calm Calm - N/A   Clear
12:35 AM 55.4 °F - 53.6 °F 94% 29.90 in 10.0 mi Calm Calm - N/A   Clear
12:55 AM 55.4 °F - 51.8 °F 88% 29.90 in 10.0 mi Calm Calm - N/A   Clear
1:15 AM 53.6 °F - 51.8 °F 94% 29.90 in 7.0 mi Calm Calm - N/A   Scattered Clouds
1:35 AM 55.4 °F - 53.6 °F 94% 29.90 in 0.8 mi Calm Calm - N/A   Overcast
1:55 AM 55.4 °F - 53.6 °F 94% 29.90 in 0.5 mi West 4.6 mph - N/A Fog Fog
2:15 AM 55.4 °F - 53.6 °F 94% 29.89 in 0.5 mi Calm Calm - N/A Fog Fog
2:35 AM 55.4 °F - 53.6 °F 94% 29.90 in 0.5 mi Calm Calm - N/A Fog Fog
2:55 AM 55.4 °F - 53.6 °F 94% 29.90 in 1.0 mi Calm Calm - N/A   Overcast
3:15 AM 55.4 °F - 53.6 °F 94% 29.90 in 0.8 mi Calm Calm - N/A   Overcast
3:35 AM 55.4 °F - 53.6 °F 94% 29.90 in 0.5 mi Calm Calm - N/A Fog Fog
3:55 AM 55.4 °F - 53.6 °F 94% 29.90 in 0.5 mi Calm Calm - N/A Fog Fog
4:15 AM 53.6 °F - 53.6 °F 100% 29.90 in 0.5 mi Calm Calm - N/A Fog Fog
4:35 AM 53.6 °F - 53.6 °F 100% 29.91 in 0.5 mi Calm Calm - N/A Fog Fog
4:55 AM 53.6 °F - 53.6 °F 100% 29.91 in 0.2 mi Calm Calm - N/A Fog Fog
5:15 AM 53.6 °F - 53.6 °F 100% 29.91 in 0.5 mi SE 3.5 mph - N/A Fog Fog
5:35 AM 53.6 °F - 53.6 °F 100% 29.91 in 0.5 mi Calm Calm - N/A Fog Fog
5:55 AM 53.6 °F - 53.6 °F 100% 29.91 in 0.5 mi Calm Calm - N/A Fog Fog
6:15 AM 53.6 °F - 53.6 °F 100% 29.92 in 0.5 mi NNE 3.5 mph - N/A Fog Fog
6:35 AM 53.6 °F - 51.8 °F 94% 29.92 in 0.5 mi Calm Calm - N/A Fog Fog
6:55 AM 53.6 °F - 51.8 °F 94% 29.93 in 0.2 mi Calm Calm - N/A Fog Fog
7:15 AM 53.6 °F - 51.8 °F 94% 29.94 in 0.2 mi Calm Calm - N/A Fog Fog
7:35 AM 53.6 °F - 51.8 °F 94% 29.94 in 0.2 mi Calm Calm - N/A Fog Fog
7:55 AM 53.6 °F - 51.8 °F 94% 29.94 in 0.2 mi Calm Calm - N/A Fog Fog
8:15 AM 53.6 °F - 53.6 °F 100% 29.94 in 0.5 mi Calm Calm - N/A Fog Fog
8:35 AM 55.4 °F - 53.6 °F 94% 29.94 in 2.0 mi Calm Calm - N/A   Overcast
8:55 AM 55.4 °F - 55.4 °F 100% 29.94 in 10.0 mi Calm Calm - N/A   Scattered Clouds
9:15 AM 59.0 °F - 57.2 °F 94% 29.94 in 10.0 mi Calm Calm - N/A   Clear
9:35 AM 60.8 °F - 57.2 °F 88% 29.95 in 10.0 mi SW 3.5 mph - N/A   Clear
9:55 AM 66.2 °F - 53.6 °F 64% 29.95 in 10.0 mi West 3.5 mph - N/A   Clear
10:15 AM 69.8 °F - 53.6 °F 56% 29.95 in 10.0 mi West 4.6 mph - N/A   Clear
10:35 AM 71.6 °F - 51.8 °F 50% 29.95 in 10.0 mi West 4.6 mph - N/A   Clear
10:55 AM 73.4 °F - 51.8 °F 47% 29.95 in 10.0 mi Calm Calm - N/A   Clear
11:15 AM 77.0 °F - 51.8 °F 41% 29.94 in 10.0 mi West 5.8 mph - N/A   Clear
11:35 AM 78.8 °F - 50.0 °F 36% 29.94 in 10.0 mi West 4.6 mph - N/A   Clear
11:55 AM 80.6 °F - 50.0 °F 34% 29.94 in 10.0 mi WSW 4.6 mph - N/A   Clear
12:15 PM 80.6 °F - 50.0 °F 34% 29.93 in 10.0 mi West 6.9 mph - N/A   Clear
12:35 PM 82.4 °F - 51.8 °F 35% 29.92 in 10.0 mi West 6.9 mph - N/A   Clear
12:55 PM 84.2 °F - 51.8 °F 33% 29.92 in 10.0 mi WNW 6.9 mph - N/A   Clear
1:15 PM 86.0 °F - 51.8 °F 31% 29.91 in 10.0 mi West 13.8 mph - N/A   Clear
1:35 PM 86.0 °F - 51.8 °F 31% 29.91 in 10.0 mi West 16.1 mph - N/A   Clear
1:55 PM 86.0 °F - 51.8 °F 31% 29.91 in 10.0 mi WNW 16.1 mph - N/A   Clear
2:15 PM 82.4 °F - 51.8 °F 35% 29.91 in 10.0 mi West 16.1 mph - N/A   Clear
2:35 PM 82.4 °F 81.4 °F 53.6 °F 37% 29.91 in 10.0 mi WNW 16.1 mph - N/A   Clear
2:55 PM 82.4 °F 81.4 °F 53.6 °F 37% 29.90 in 10.0 mi West 15.0 mph - N/A   Clear
3:15 PM 82.4 °F 81.4 °F 53.6 °F 37% 29.90 in 10.0 mi West 18.4 mph - N/A   Clear
3:35 PM 82.4 °F 81.4 °F 53.6 °F 37% 29.90 in 10.0 mi West 16.1 mph - N/A   Clear
3:55 PM 82.4 °F 81.4 °F 53.6 °F 37% 29.90 in 10.0 mi West 16.1 mph - N/A   Clear
4:15 PM 80.6 °F 80.5 °F 55.4 °F 42% 29.90 in 10.0 mi West 15.0 mph 20.7 mph N/A   Clear
4:35 PM 80.6 °F 80.5 °F 55.4 °F 42% 29.90 in 10.0 mi West 13.8 mph - N/A   Clear
4:55 PM 78.8 °F - 55.4 °F 44% 29.91 in 10.0 mi West 17.3 mph - N/A   Clear
5:15 PM 77.0 °F - 55.4 °F 47% 29.91 in 10.0 mi West 15.0 mph - N/A   Clear
5:35 PM 75.2 °F - 55.4 °F 50% 29.91 in 10.0 mi West 13.8 mph - N/A   Clear
5:55 PM 73.4 °F - 55.4 °F 53% 29.91 in 10.0 mi West 12.7 mph - N/A   Clear
6:15 PM 71.6 °F - 55.4 °F 57% 29.91 in 10.0 mi West 12.7 mph - N/A   Clear
6:35 PM 71.6 °F - 55.4 °F 57% 29.91 in 10.0 mi West 11.5 mph - N/A   Clear
6:55 PM 69.8 °F - 55.4 °F 60% 29.92 in 10.0 mi West 9.2 mph - N/A   Clear
7:15 PM 68.0 °F - 55.4 °F 64% 29.92 in 10.0 mi West 9.2 mph - N/A   Clear
7:35 PM 64.4 °F - 55.4 °F 73% 29.93 in 10.0 mi West 9.2 mph - N/A   Clear
7:55 PM 64.4 °F - 55.4 °F 73% 29.93 in 10.0 mi West 6.9 mph - N/A   Clear
8:15 PM 62.6 °F - 55.4 °F 77% 29.94 in 10.0 mi WNW 6.9 mph - N/A   Clear
8:35 PM 62.6 °F - 55.4 °F 77% 29.94 in 10.0 mi West 3.5 mph - N/A   Clear
8:55 PM 60.8 °F - 55.4 °F 82% 29.95 in 10.0 mi WSW 3.5 mph - N/A   Clear
9:15 PM 60.8 °F - 55.4 °F 82% 29.95 in 10.0 mi WSW 4.6 mph - N/A   Clear
9:35 PM 60.8 °F - 55.4 °F 82% 29.96 in 10.0 mi WSW 3.5 mph - N/A   Clear
9:55 PM 59.0 °F - 55.4 °F 88% 29.96 in 10.0 mi SW 4.6 mph - N/A   Clear
10:15 PM 59.0 °F - 55.4 °F 88% 29.96 in 10.0 mi WSW 3.5 mph - N/A   Clear
10:35 PM 59.0 °F - 53.6 °F 82% 29.97 in 10.0 mi WSW 3.5 mph - N/A   Clear
10:55 PM 57.2 °F - 53.6 °F 88% 29.97 in 10.0 mi West 3.5 mph - N/A   Clear
11:15 PM 57.2 °F - 53.6 °F 88% 29.97 in 10.0 mi WSW 3.5 mph - N/A   Clear
11:35 PM 55.4 °F - 53.6 °F 94% 29.97 in 10.0 mi Calm Calm - N/A   Clear
11:55 PM 55.4 °F - 53.6 °F 94% 29.97 in 10.0 mi Calm Calm - N/A   Clear